When you browse on this site, cookies collect data to enhance your experience and personalize the content and advertising you see.
Visit our Privacy Policy to learn more. By continuing to use the site, you agree to this use of cookies and data.
  • In Spain
  • List of Countries
  • For 7 days
  • Water Temperature
  • Weather Map
  • Weather Widgets
  • user-avatar
    Login

    Hourly Weather Buchach

    Today, 29 May, Friday

    Time Temperature Precipitation Wind Pressure Humidity
    00:00 +9°C° 0.2 mm 3 mps 730 mmHg 95%
    01:00 +9°C° 0.2 mm 3 mps 730 mmHg 95%
    02:00 +9°C° 0.2 mm 3 mps 730 mmHg 96%
    03:00 +9°C° 0.1 mm 3 mps 730 mmHg 96%
    04:00 +9°C° 0.1 mm 3 mps 730 mmHg 97%
    05:00 +8°C° 0.1 mm 4 mps 730 mmHg 97%
    06:00 +8°C° 0.1 mm 5 mps 730 mmHg 96%
    07:00 +9°C° 0.1 mm 5 mps 730 mmHg 96%
    08:00 +9°C° 0.1 mm 6 mps 730 mmHg 95%
    09:00 +10°C° 0 mm 6 mps 730 mmHg 93%
    10:00 +10°C° 0 mm 7 mps 730 mmHg 91%
    11:00 +11°C° 0 mm 7 mps 730 mmHg 88%
    12:00 +12°C° 0.2 mm 7 mps 729 mmHg 85%
    13:00 +12°C° 0.2 mm 7 mps 729 mmHg 83%
    14:00 +14°C° 0.2 mm 7 mps 729 mmHg 80%
    15:00 +14°C° 0.5 mm 7 mps 729 mmHg 80%
    16:00 +12°C° 0.5 mm 7 mps 729 mmHg 81%
    17:00 +12°C° 0.5 mm 7 mps 729 mmHg 82%
    18:00 +11°C° 0.2 mm 6 mps 728 mmHg 85%
    19:00 +10°C° 0.2 mm 5 mps 728 mmHg 89%
    20:00 +10°C° 0.2 mm 4 mps 728 mmHg 92%
    21:00 +8°C° 0 mm 5 mps 728 mmHg 93%
    22:00 +8°C° 0 mm 5 mps 728 mmHg 93%
    23:00 +7°C° 0 mm 6 mps 728 mmHg 94%

    Tomorrow, 30 May, Saturday

    Time Temperature Precipitation Wind Pressure Humidity
    00:00 +7°C° 0.1 mm 6 mps 728 mmHg 94%
    01:00 +8°C° 0.1 mm 6 mps 727 mmHg 94%
    02:00 +8°C° 0.1 mm 6 mps 727 mmHg 94%
    03:00 +8°C° 0.1 mm 7 mps 727 mmHg 94%
    04:00 +8°C° 0.1 mm 7 mps 727 mmHg 94%
    05:00 +6°C° 0.1 mm 7 mps 726 mmHg 94%
    06:00 +7°C° 0.1 mm 8 mps 727 mmHg 94%
    07:00 +7°C° 0.1 mm 8 mps 727 mmHg 93%
    08:00 +7°C° 0.1 mm 8 mps 727 mmHg 93%
    09:00 +7°C° 0.1 mm 8 mps 727 mmHg 91%
    10:00 +7°C° 0.1 mm 8 mps 727 mmHg 90%
    11:00 +7°C° 0.1 mm 8 mps 727 mmHg 89%
    12:00 +8°C° 0 mm 9 mps 726 mmHg 86%
    13:00 +10°C° 0 mm 9 mps 726 mmHg 83%
    14:00 +10°C° 0 mm 9 mps 726 mmHg 80%
    15:00 +10°C° 0 mm 9 mps 726 mmHg 80%
    16:00 +10°C° 0 mm 9 mps 726 mmHg 80%
    17:00 +10°C° 0 mm 9 mps 726 mmHg 80%
    18:00 +8°C° 0 mm 9 mps 726 mmHg 81%
    19:00 +7°C° 0 mm 8 mps 725 mmHg 82%
    20:00 +7°C° 0 mm 8 mps 725 mmHg 83%
    21:00 +7°C° 0 mm 8 mps 725 mmHg 83%
    22:00 +8°C° 0 mm 7 mps 725 mmHg 83%
    23:00 +8°C° 0 mm 7 mps 724 mmHg 82%

    Day after tomorrow, 31 May, Sunday

    Time Temperature Precipitation Wind Pressure Humidity
    00:00 +8°C° 0 mm 7 mps 724 mmHg 80%
    01:00 +8°C° 0 mm 7 mps 723 mmHg 77%
    02:00 +8°C° 0 mm 7 mps 722 mmHg 75%
    03:00 +8°C° 1.5 mm 6 mps 722 mmHg 81%
    04:00 +8°C° 1.5 mm 6 mps 721 mmHg 87%
    05:00 +7°C° 1.5 mm 6 mps 721 mmHg 93%
    06:00 +8°C° 3.1 mm 7 mps 721 mmHg 93%
    07:00 +7°C° 3.1 mm 8 mps 721 mmHg 92%
    08:00 +7°C° 3.1 mm 8 mps 721 mmHg 92%
    09:00 +7°C° 3.5 mm 8 mps 721 mmHg 92%
    10:00 +7°C° 3.5 mm 8 mps 721 mmHg 92%
    11:00 +7°C° 3.5 mm 8 mps 722 mmHg 92%
    12:00 +8°C° 2 mm 7 mps 722 mmHg 93%
    13:00 +8°C° 2 mm 7 mps 723 mmHg 93%
    14:00 +8°C° 2 mm 6 mps 723 mmHg 93%
    15:00 +9°C° 0.9 mm 5 mps 724 mmHg 93%
    16:00 +9°C° 0.9 mm 5 mps 724 mmHg 92%
    17:00 +10°C° 0.9 mm 4 mps 724 mmHg 91%
    18:00 +10°C° 0.2 mm 3 mps 725 mmHg 91%
    19:00 +10°C° 0.2 mm 3 mps 725 mmHg 90%
    20:00 +10°C° 0.2 mm 2 mps 726 mmHg 89%
    21:00 +9°C° 0 mm 3 mps 726 mmHg 90%
    22:00 +9°C° 0 mm 3 mps 727 mmHg 91%
    23:00 +8°C° 0 mm 3 mps 727 mmHg 91%

    1 June, Monday

    Time Temperature Precipitation Wind Pressure Humidity
    00:00 +8°C° 0.1 mm 3 mps 728 mmHg 92%
    01:00 +8°C° 0.1 mm 3 mps 728 mmHg 93%
    02:00 +8°C° 0.1 mm 3 mps 728 mmHg 94%
    03:00 +8°C° 0.5 mm 3 mps 728 mmHg 95%
    04:00 +8°C° 0.5 mm 2 mps 729 mmHg 95%
    05:00 +8°C° 0.5 mm 2 mps 729 mmHg 96%
    06:00 +10°C° 0.1 mm 2 mps 729 mmHg 93%
    07:00 +11°C° 0.1 mm 3 mps 729 mmHg 91%
    08:00 +13°C° 0.1 mm 3 mps 730 mmHg 88%
    09:00 +14°C° 0.2 mm 3 mps 730 mmHg 85%
    10:00 +15°C° 0.2 mm 4 mps 730 mmHg 81%
    11:00 +17°C° 0.2 mm 4 mps 730 mmHg 78%
    12:00 +18°C° 0.6 mm 4 mps 730 mmHg 77%
    13:00 +18°C° 0.6 mm 4 mps 730 mmHg 77%
    14:00 +19°C° 0.6 mm 4 mps 730 mmHg 76%
    15:00 +18°C° 0.8 mm 4 mps 730 mmHg 78%
    16:00 +18°C° 0.8 mm 4 mps 730 mmHg 81%
    17:00 +18°C° 0.8 mm 4 mps 730 mmHg 83%
    18:00 +17°C° 0.5 mm 4 mps 730 mmHg 86%
    19:00 +15°C° 0.5 mm 4 mps 730 mmHg 89%
    20:00 +14°C° 0.5 mm 4 mps 730 mmHg 92%
    21:00 +13°C° 0.2 mm 4 mps 731 mmHg 93%
    22:00 +12°C° 0.2 mm 4 mps 731 mmHg 94%
    23:00 +12°C° 0.2 mm 4 mps 731 mmHg 96%

    2 June, Tuesday

    Time Temperature Precipitation Wind Pressure Humidity
    00:00 +11°C° 0 mm 4 mps 731 mmHg 96%
    01:00 +11°C° 0 mm 4 mps 731 mmHg 96%
    02:00 +10°C° 0 mm 4 mps 731 mmHg 96%
    03:00 +10°C° 0 mm 3 mps 731 mmHg 97%
    04:00 +9°C° 0 mm 3 mps 731 mmHg 97%
    05:00 +9°C° 0 mm 3 mps 731 mmHg 97%
    06:00 +10°C° 0 mm 3 mps 732 mmHg 94%
    07:00 +11°C° 0 mm 4 mps 732 mmHg 91%
    08:00 +12°C° 0 mm 4 mps 732 mmHg 88%
    09:00 +13°C° 0.1 mm 4 mps 733 mmHg 82%
    10:00 +15°C° 0.1 mm 4 mps 733 mmHg 77%
    11:00 +17°C° 0.1 mm 4 mps 733 mmHg 71%
    12:00 +17°C° 0 mm 4 mps 733 mmHg 70%
    13:00 +16°C° 0 mm 5 mps 732 mmHg 68%
    14:00 +17°C° 0 mm 5 mps 732 mmHg 66%
    15:00 +18°C° 0 mm 4 mps 732 mmHg 67%
    16:00 +18°C° 0 mm 4 mps 731 mmHg 68%
    17:00 +18°C° 0 mm 4 mps 731 mmHg 68%
    18:00 +16°C° 0 mm 3 mps 731 mmHg 73%
    19:00 +15°C° 0 mm 2 mps 731 mmHg 79%
    20:00 +13°C° 0 mm 1 mps 731 mmHg 84%
    21:00 +13°C° 0 mm 1 mps 731 mmHg 85%
    22:00 +12°C° 0 mm 1 mps 731 mmHg 86%
    23:00 +10°C° 0 mm 0 mps 731 mmHg 87%

    3 June, Wednesday

    Time Temperature Precipitation Wind Pressure Humidity
    00:00 +10°C° 0 mm 0 mps 731 mmHg 87%
    01:00 +10°C° 0 mm 0 mps 731 mmHg 88%
    02:00 +9°C° 0 mm 0 mps 731 mmHg 88%
    03:00 +9°C° 0 mm 0 mps 731 mmHg 88%
    04:00 +9°C° 0 mm 0 mps 731 mmHg 89%
    05:00 +10°C° 0 mm 1 mps 730 mmHg 89%
    06:00 +12°C° 0 mm 1 mps 731 mmHg 86%
    07:00 +14°C° 0 mm 1 mps 731 mmHg 82%
    08:00 +16°C° 0 mm 1 mps 731 mmHg 78%
    09:00 +18°C° 0.4 mm 1 mps 731 mmHg 77%
    10:00 +19°C° 0.4 mm 1 mps 731 mmHg 75%
    11:00 +19°C° 0.4 mm 2 mps 731 mmHg 74%
    12:00 +19°C° 1.3 mm 2 mps 731 mmHg 74%
    13:00 +19°C° 1.3 mm 3 mps 730 mmHg 75%
    14:00 +19°C° 1.3 mm 3 mps 730 mmHg 75%
    15:00 +19°C° 0.3 mm 3 mps 730 mmHg 74%
    16:00 +20°C° 0.3 mm 3 mps 730 mmHg 72%
    17:00 +20°C° 0.3 mm 3 mps 730 mmHg 71%
    18:00 +18°C° 0 mm 3 mps 730 mmHg 76%
    19:00 +17°C° 0 mm 3 mps 730 mmHg 80%
    20:00 +15°C° 0 mm 2 mps 730 mmHg 85%
    21:00 +14°C° 0 mm 2 mps 730 mmHg 86%
    22:00 +12°C° 0 mm 3 mps 730 mmHg 87%
    23:00 +11°C° 0 mm 3 mps 731 mmHg 88%
    Show more